FW4249 Weather Reports


time (UTC)temp
F
wind
direction
speed
knots
gust
knots
rain 1hr
in
rain 24hr
in
rain mn
in
humidity
%
barometer
mb
20190920175417 76 0 20.9 26.1 0.00 0.00 0.00 74 1005.5
20190920174417 76 0 22.6 29.5 0.00 0.00 0.00 72 1005.6
20190920173417 77 0 19.1 24.3 0.00 0.00 0.00 72 1005.8
20190920172417 77 0 24.3 29.5 0.00 0.00 0.00 70 1005.8
20190920171417 77 0 22.6 26.1 0.00 0.00 0.00 70 1006.1
20190920170417 77 0 24.3 30.4 0.00 0.00 0.00 69 1006.2
20190920165417 77 0 22.6 29.5 0.00 0.00 0.00 69 1006.3
20190920164417 78 0 22.6 30.4 0.00 0.00 0.00 69 1006.4
20190920163418 78 0 20.9 26.9 0.00 0.00 0.00 71 1006.6
20190920162417 78 0 22.6 26.9 0.00 0.00 0.00 70 1006.6
20190920161417 78 0 23.5 29.5 0.00 0.00 0.00 70 1006.7
20190920160417 78 22 20.0 25.2 0.00 0.00 0.00 70 1006.7
20190920155417 77 0 21.7 26.9 0.00 0.00 0.00 70 1006.8
20190920154417 77 0 18.2 24.3 0.00 0.00 0.00 72 1006.8
20190920153417 77 22 19.1 25.2 0.00 0.00 0.00 73 1006.8
20190920152418 78 22 20.0 24.3 0.00 0.00 0.00 73 1006.9
20190920151417 78 0 17.4 24.3 0.00 0.00 0.00 73 1006.9
20190920150417 78 0 19.1 24.3 0.00 0.00 0.00 72 1006.9
20190920145417 78 22 23.5 31.3 0.00 0.00 0.00 71 1006.9
20190920144417 78 0 21.7 31.3 0.00 0.00 0.00 70 1006.8
20190920143417 78 0 19.1 22.6 0.00 0.00 0.00 70 1006.8
20190920142417 78 0 25.2 33.9 0.00 0.00 0.00 67 1006.9
20190920141417 78 0 25.2 34.8 0.00 0.00 0.00 68 1006.7
20190920140417 78 0 21.7 26.1 0.00 0.00 0.00 69 1006.8
20190920135417 78 22 20.9 27.8 0.00 0.00 0.00 70 1006.9
20190920134417 78 22 24.3 27.8 0.00 0.00 0.00 69 1006.8
20190920133416 78 0 26.1 33.9 0.00 0.00 0.00 66 1007.0
20190920132417 77 0 24.3 33.9 0.00 0.00 0.00 70 1007.1
20190920131417 77 0 27.8 33.0 0.00 0.00 0.00 72 1007.1
20190920130417 77 22 26.1 35.6 0.00 0.00 0.00 76 1006.9
20190920125417 77 0 26.9 34.8 0.00 0.00 0.00 73 1006.8
20190920124417 78 0 25.2 33.9 0.00 0.00 0.00 71 1006.7
20190920123417 78 0 21.7 29.5 0.00 0.00 0.00 72 1006.7
20190920122417 78 0 28.7 36.5 0.00 0.00 0.00 70 1006.5
20190920121419 78 0 20.9 26.9 0.00 0.00 0.00 70 1006.5
20190920120417 79 0 26.9 36.5 0.00 0.00 0.00 68 1006.4
20190920115416 79 22 25.2 29.5 0.00 0.00 0.00 68 1006.4
20190920114417 79 0 27.8 34.8 0.00 0.00 0.00 66 1006.5
20190920113417 79 22 24.3 30.4 0.00 0.00 0.00 68 1006.7
20190920112418 78 0 23.5 28.7 0.00 0.00 0.00 69 1006.6
20190920111417 78 0 21.7 26.1 0.00 0.00 0.00 73 1006.5
20190920110416 78 0 28.7 37.4 0.00 0.00 0.00 72 1006.4
20190920105417 78 0 32.2 39.1 0.00 0.00 0.00 72 1006.4
20190920104417 78 22 19.1 28.7 0.00 0.00 0.00 73 1006.5
20190920103416 78 22 23.5 33.9 0.00 0.00 0.00 73 1006.4
20190920102416 78 0 23.5 30.4 0.00 0.00 0.00 73 1006.4
20190920101416 78 0 26.1 33.0 0.00 0.00 0.00 73 1006.4
20190920100416 78 0 25.2 33.9 0.00 0.00 0.00 72 1006.5
20190920095416 78 0 25.2 33.9 0.00 0.00 0.00 73 1006.5
20190920094417 78 0 23.5 32.2 0.00 0.00 0.00 72 1006.4
20190920093418 78 22 26.1 32.2 0.00 0.00 0.00 72 1006.4
20190920092417 78 0 19.1 28.7 0.00 0.00 0.00 73 1006.4
20190920091416 78 0 13.9 23.5 0.00 0.00 0.00 72 1006.5
20190920090416 78 0 22.6 32.2 0.00 0.00 0.00 71 1006.4
20190920085416 78 0 28.7 33.0 0.00 0.00 0.00 71 1006.4
20190920084416 78 0 18.2 28.7 0.00 0.00 0.00 71 1006.6
20190920083416 78 22 21.7 30.4 0.00 0.00 0.00 71 1006.6
20190920082416 78 0 20.0 26.9 0.00 0.00 0.00 71 1006.5
20190920081416 78 0 14.8 26.9 0.00 0.00 0.00 71 1006.4
20190920080416 78 0 13.0 21.7 0.00 0.00 0.00 71 1006.6
20190920075417 78 0 18.2 27.8 0.00 0.00 0.00 71 1006.6
20190920074416 78 22 18.2 28.7 0.00 0.00 0.00 71 1006.6
20190920073417 78 0 24.3 33.0 0.00 0.00 0.00 71 1006.6
20190920072416 78 0 27.8 35.6 0.00 0.00 0.00 70 1006.6
20190920071416 78 22 23.5 29.5 0.00 0.00 0.00 71 1006.6
20190920070416 78 0 21.7 30.4 0.00 0.00 0.00 71 1006.7
20190920065416 78 0 19.1 29.5 0.00 0.00 0.00 71 1006.7
20190920064416 78 0 24.3 31.3 0.00 0.00 0.00 71 1006.8
20190920052416 79 0 24.3 30.4 0.00 0.00 0.00 70 1007.3
20190920051416 79 0 18.2 23.5 0.00 0.00 0.00 71 1007.5
20190920050416 79 0 16.5 28.7 0.00 0.00 0.00 71 1007.6
20190920045416 79 22 18.2 26.9 0.00 0.00 0.00 70 1007.6
20190920044416 79 0 20.0 28.7 0.00 0.00 0.00 70 1007.7
20190920043416 79 0 26.1 36.5 0.00 0.00 0.00 70 1007.8
20190920042417 79 0 18.2 26.1 0.00 0.00 0.00 70 1007.7
20190920041416 79 0 19.1 26.9 0.00 0.00 0.00 69 1007.8
20190920040416 79 22 22.6 29.5 0.00 0.00 0.00 70 1008.0
20190920035416 79 337 15.6 21.7 0.00 0.00 0.00 70 1007.9
20190920034416 79 0 23.5 33.0 0.00 0.00 0.00 71 1008.0
20190920033416 79 0 26.9 35.6 0.00 0.00 0.00 70 1008.4
20190920032416 79 22 21.7 33.0 0.00 0.00 0.00 71 1008.5
20190920031416 79 0 26.1 35.6 0.00 0.00 0.00 71 1008.5
20190920030416 79 0 23.5 33.9 0.00 0.00 0.00 72 1008.7
20190920025416 79 0 24.3 36.5 0.00 0.00 0.00 71 1008.8
20190920024416 79 0 28.7 32.2 0.00 0.00 0.00 70 1008.8
20190920023416 79 22 27.8 33.9 0.00 0.00 0.00 71 1008.9
20190920022415 79 0 28.7 36.5 0.00 0.00 0.00 71 1009.0
20190920021416 80 0 26.1 31.3 0.00 0.00 0.00 70 1008.9
20190920020415 79 0 22.6 33.0 0.00 0.00 0.00 70 1009.1
20190920015415 79 0 21.7 30.4 0.00 0.00 0.00 70 1009.1
20190920014415 79 0 26.1 31.3 0.00 0.00 0.00 71 1009.1
20190920013416 79 0 24.3 36.5 0.00 0.00 0.00 72 1009.2
20190920012415 79 0 25.2 31.3 0.00 0.00 0.00 72 1009.2
20190920011416 79 0 21.7 33.9 0.00 0.00 0.00 72 1009.4
20190920010416 79 0 29.5 34.8 0.00 0.00 0.00 71 1009.3
20190920005416 79 0 27.8 36.5 0.00 0.00 0.00 71 1009.3
20190920004415 79 0 26.9 34.8 0.00 0.00 0.00 72 1009.3
20190920003416 78 22 26.1 36.5 0.00 0.00 0.00 73 1009.3
20190920002416 78 0 21.7 27.8 0.00 0.00 0.00 73 1009.5
20190920001416 78 0 21.7 31.3 0.00 0.00 0.00 74 1009.5
20190920000415 78 0 26.1 33.0 0.00 0.00 0.00 74 1009.5
20190919235415 78 0 22.6 33.0 0.00 0.00 0.00 74 1009.6
20190919234417 78 0 23.5 31.3 0.00 0.00 0.00 74 1009.3
20190919233417 78 0 28.7 35.6 0.00 0.00 0.00 73 1009.3
20190919232418 78 0 26.9 36.5 0.00 0.00 0.00 74 1009.4
20190919231417 78 0 25.2 32.2 0.00 0.00 0.00 73 1009.2
20190919230416 78 0 26.1 32.2 0.00 0.00 0.00 73 1009.1
20190919225417 78 0 27.8 38.2 0.00 0.00 0.00 74 1009.0
20190919224422 78 0 25.2 33.9 0.00 0.00 0.00 74 1008.9
20190919223418 78 0 28.7 38.2 0.00 0.00 0.00 73 1008.8
20190919222417 78 0 29.5 36.5 0.00 0.00 0.00 74 1008.7
20190919221417 78 0 23.5 27.8 0.00 0.00 0.00 74 1008.7
20190919220416 78 0 20.9 26.1 0.00 0.00 0.00 75 1008.9
20190919215418 78 0 24.3 33.0 0.00 0.00 0.00 74 1008.8
20190919214418 78 0 26.1 31.3 0.00 0.00 0.00 75 1008.8
20190919213417 78 0 28.7 33.0 0.00 0.00 0.00 75 1008.8
20190919212417 78 0 25.2 34.8 0.00 0.00 0.00 75 1008.7
20190919211417 78 0 26.1 32.2 0.00 0.00 0.00 75 1008.8
20190919210417 78 0 28.7 33.9 0.00 0.00 0.00 75 1008.6
20190919205417 78 0 24.3 29.5 0.00 0.00 0.00 75 1008.6
20190919204417 78 0 25.2 33.0 0.00 0.00 0.00 74 1008.6
20190919203422 78 0 21.7 33.0 0.00 0.00 0.00 75 1008.5
20190919202418 78 0 26.9 33.0 0.00 0.00 0.00 74 1008.5
20190919201417 78 22 25.2 34.8 0.00 0.00 0.00 75 1008.4
20190919200417 78 0 26.9 34.8 0.00 0.00 0.00 74 1008.4
20190919195422 78 22 27.8 33.9 0.00 0.00 0.00 74 1008.4
20190919194417 78 0 29.5 35.6 0.00 0.00 0.00 74 1008.3
20190919193417 78 22 27.8 33.0 0.00 0.00 0.00 74 1008.3
20190919192417 78 0 27.8 33.9 0.00 0.00 0.00 74 1008.3
20190919191422 78 0 27.8 36.5 0.00 0.00 0.00 75 1008.3
20190919190417 78 0 26.9 33.9 0.00 0.00 0.00 73 1008.3
20190919185422 78 22 26.9 33.9 0.00 0.00 0.00 74 1008.2
20190919184422 78 0 26.1 38.2 0.00 0.00 0.00 75 1008.3
20190919183417 78 0 26.9 33.0 0.00 0.00 0.00 74 1008.3
20190919182422 78 0 26.9 31.3 0.00 0.00 0.00 73 1008.3
20190919181417 78 0 28.7 34.8 0.00 0.00 0.00 73 1008.5
20190919180417 78 0 27.8 34.8 0.00 0.00 0.00 73 1008.4